[[{"header":{"parameterUnit":"m.s-1","parameterCategory":1,"la1":30.2991,"la2":30.254,"lo1":-89.0895,"lo2":-89.0444,"dy":0.0017,"dx":0.0017,"nx":28,"ny":28,"refTime":"2024-09-25T21:00:00:Z","depth":0,"parameterNumber":2,"parameterNumberName":"U-component_of_WINDS"},"data":[0,0,0,0,0,0,0,0,0,0,0,0,0,0,0,0,0,0,0,0,0,0,0,0,0,0,0,0,0,0,0,0,0,0,0,0,0,0,0,0,0,0,0,0,0,0,0,0,0,0,0,0,0,0,0,0,0,0,-3.2533,-3.2536,0,-3.2767,-3.2769,-3.2772,-3.2721,-3.2716,-3.2712,-3.2708,-3.2954,-3.2965,-3.2975,0,0,0,0,0,0,0,0,0,0,0,0,0,-3.2049,-3.2058,-3.2533,-3.2536,-3.2539,-3.2766,-3.2769,-3.2773,-3.2722,-3.2716,-3.2711,-3.2706,-3.2951,-3.2963,-3.2976,0,0,0,0,0,0,0,0,0,0,0,0,0,-3.2269,-3.2061,-3.2532,-3.254,-3.2543,-3.2766,-3.277,-3.2774,-3.2723,-3.2716,-3.2709,-3.2703,-3.2947,-3.2962,-3.2978,-3.3209,0,0,-3.3027,-3.3034,0,0,0,0,0,0,0,0,-3.2256,-3.2286,-3.2536,-3.254,-3.2544,-3.2708,-3.2689,-3.292,-3.2724,-3.2655,-3.2708,-3.27,-3.2878,-3.2899,-3.2958,-3.322,-3.3231,-3.3028,-3.3038,-3.3045,-3.3049,0,0,0,0,0,0,0,-3.2241,-3.2276,-3.2625,-3.254,-3.2545,-3.2534,-3.2558,-3.2733,-3.2801,-3.266,-3.2657,-3.2685,-3.2879,-3.2943,-3.2963,-3.3234,-3.3028,-3.3042,-3.3052,-3.3058,-3.37,-3.3707,0,0,0,0,0,0,-3.2221,-3.2264,-3.2618,-3.2632,-3.2381,-3.2549,-3.2575,-3.2662,-3.2799,-3.2813,-3.2691,-3.2682,-3.2918,-3.2945,-3.2972,-3.3253,-3.3045,-3.306,-3.3069,-3.3692,-3.3701,-3.3709,0,0,0,0,0,0,-3.2211,-3.2253,-3.2609,-3.2447,-3.2492,-3.2564,-3.2662,-3.267,-3.2733,-3.2821,-3.2834,-3.2743,-3.2914,-3.2949,-3.315,-3.3261,-3.3067,-3.3081,-3.3683,-3.3695,-3.3705,-3.3816,0,0,0,0,0,0,-3.2197,-3.225,-3.2337,-3.245,-3.25,-3.2782,-3.2668,-3.2679,-3.276,-3.2751,-3.2874,-3.2888,-3.2912,-3.3126,-3.3166,-3.3279,-3.3094,-3.3674,-3.3689,-3.3702,-3.3803,-3.3829,-3.3852,0,0,0,0,0,-3.218,-3.236,-3.2342,-3.2385,-3.2611,-3.2788,-3.2817,-3.284,-3.2769,-3.2859,-3.2915,-3.2884,-3.3241,-3.3147,-3.3192,-3.3311,-3.3667,-3.3684,-3.3701,-3.3792,-3.3824,-3.3851,0,0,0,0,0,0,-3.2262,-3.2375,-3.2356,-3.2577,-3.2673,-3.2779,-3.2893,-3.2873,-3.2993,-3.298,-3.3004,-3.3032,-3.3237,-3.3293,-3.3187,-3.3542,-3.3444,-3.3471,-3.3499,-3.353,-3.3554,-3.3538,-3.3107,0,0,0,0,0,-3.2305,-3.2437,-3.253,-3.2716,-3.2765,-3.282,-3.2899,-3.2907,-3.3008,-3.3049,-3.312,-3.3222,-3.3357,-3.3446,-3.3575,-3.3809,-3.3837,-3.3913,-3.3938,-3.3957,-3.3982,-3.4112,-3.4147,-3.3764,-3.3764,-3.3764,0,0,-3.2397,-3.2475,-3.2558,-3.2735,-3.281,-3.2949,-3.2855,-3.3006,-3.3111,-3.3073,-3.3267,-3.3323,-3.3438,-3.3656,-3.3756,-3.371,-3.4093,-3.3979,-3.3994,-3.4008,-3.4132,-3.4169,-3.4201,-3.3776,-3.3774,-3.3772,0,0,-3.2635,-3.2706,-3.287,-3.2947,-3.3061,-3.3097,-3.3136,-3.3245,-3.328,-3.3474,-3.3449,-3.3574,-3.3806,-3.3889,-3.3962,-3.4231,-3.4208,-3.4272,-3.4403,-3.453,-3.456,-3.4587,-3.4686,-3.4721,-3.4294,-3.4295,-3.4295,0,-3.2736,-3.2943,-3.2958,-3.3111,-3.3191,-3.316,-3.3328,-3.3402,-3.3554,-3.3611,-3.3555,-3.3846,-3.3921,-3.416,-3.4225,-3.4284,-3.4332,-3.426,-3.4553,-3.4581,-3.4606,-3.4701,-3.4738,-3.4302,-3.4301,-3.4301,-3.43,0,-3.3062,-3.3205,-3.3324,-3.3469,-3.3562,-3.3722,-3.3763,-3.3855,-3.3855,-3.3897,-3.4096,-3.4184,-3.4332,-3.4388,-3.439,-3.4628,-3.4596,-3.4547,-3.445,-3.465,-3.474,-3.4776,-3.4313,-3.431,-3.4308,-3.4306,0,0,-3.3362,-3.3511,-3.3555,-3.3621,-3.3744,-3.3857,-3.4015,-3.4157,-3.4237,-3.4342,-3.4478,-3.4674,-3.4629,-3.4712,-3.4722,-3.4833,-3.5043,-3.4771,-3.4774,-3.4821,-3.5314,-3.5353,-3.5395,-3.5026,-3.5033,-3.5039,-3.5306,0,-3.3615,-3.3893,-3.3911,-3.4164,-3.4298,-3.427,-3.4408,-3.45,-3.4543,-3.4665,-3.4712,-3.4852,-3.4781,-3.4831,-3.4938,-3.4995,-3.5143,-3.4975,-3.5157,-3.5163,-3.5133,-3.5441,-3.5483,-3.5731,-3.5341,-3.5346,-3.5351,0,-3.3947,-3.406,-3.4326,-3.4431,-3.4488,-3.4612,-3.4744,-3.4859,-3.4963,-3.4986,-3.5078,-3.5073,-3.5238,-3.5131,-3.5361,-3.5246,-3.5321,-3.536,-3.537,-3.5392,-3.5272,-3.5475,-3.581,-3.5849,-3.5405,-3.5401,-3.5397,0,-3.4144,-3.4362,-3.455,-3.4607,-3.4732,-3.4821,-3.4878,-3.4974,-3.5058,-3.5174,-3.5229,-3.5362,-3.5437,-3.5541,-3.5573,-3.5492,-3.5803,-3.5698,-3.583,-3.583,-3.5901,-3.5897,-3.6257,-3.5942,-3.5942,-3.5941,-3.594,0,-3.4426,-3.4591,-3.464,-3.4756,-3.494,-3.4959,-3.5142,-3.5193,-3.5279,-3.5407,-3.5389,-3.551,-3.5542,-3.5669,-3.5695,-3.5883,-3.5916,-3.5942,-3.5947,-3.5946,-3.5943,-3.5998,-3.5984,-3.5951,-3.5949,-3.5947,-3.5945,0,-3.4679,-3.4718,-3.4921,-3.5022,-3.5052,-3.5183,-3.5271,-3.5384,-3.5422,-3.5584,-3.5623,-3.5685,-3.5834,-3.5874,-3.6052,-3.607,-3.6292,-3.628,-3.6257,-3.6258,-3.6389,-3.6378,-3.6801,-3.6859,-3.6502,-3.6506,-3.6508,0,-3.4859,-3.4985,-3.5099,-3.5182,-3.5242,-3.5375,-3.546,-3.5483,-3.5573,-3.57,-3.5799,-3.5944,-3.6062,-3.63,-3.6363,-3.65,-3.6493,-3.6632,-3.6514,-3.6509,-3.65,-3.6494,-3.6508,-3.6656,-3.666,-3.6663,-3.6665,0,-3.5175,-3.5188,-3.531,-3.544,-3.5541,-3.5645,-3.5744,-3.5814,-3.5851,-3.5953,-3.6103,-3.6194,-3.6375,-3.6521,-3.6658,-3.6719,-3.6701,-3.6701,-3.6739,-3.6741,-3.6724,-3.6739,-3.6322,-3.6692,-3.669,-3.6688,-3.6686,-3.6685,-3.54,-3.5511,-3.5608,-3.5746,-3.5822,-3.5915,-3.6026,-3.6078,-3.6203,-3.6351,-3.6356,-3.6521,-3.6622,-3.6804,-3.6872,-3.7002,-3.6961,-3.7016,-3.7031,-3.7045,-3.7058,-3.6699,-3.7027,-3.7026,-3.7025,-3.7025,-3.7024,0,-3.5718,-3.5779,-3.5904,-3.6043,-3.6152,-3.612,-3.6228,-3.6322,-3.6466,-3.656,-3.6676,-3.6849,-3.699,-3.7063,-3.7203,-3.7294,-3.7289,-3.733,-3.7326,-3.7341,-3.7085,-3.7039,-3.7332,-3.7332,-3.7332,-3.7332,-3.7332,-3.7332,-3.5897,-3.6084,-3.6108,-3.6334,-3.6393,-3.6552,-3.6617,-3.6704,-3.678,-3.6973,-3.709,-3.7134,-3.7222,-3.7368,-3.7496,-3.7514,-3.7569,-3.7616,-3.763,-3.739,-3.7359,-3.7329,-3.7286,-3.7627,-3.7627,-3.7876,-3.7878,-3.788]},{"header":{"parameterUnit":"m.s-1","parameterCategory":1,"la1":30.2991,"la2":30.254,"lo1":-89.0895,"lo2":-89.0444,"dy":0.0017,"dx":0.0017,"nx":28,"ny":28,"refTime":"2024-09-25T21:00:00:Z","depth":0,"parameterNumber":3,"parameterNumberName":"V-component_of_WINDS"},"data":[0,0,0,0,0,0,0,0,0,0,0,0,0,0,0,0,0,0,0,0,0,0,0,0,0,0,0,0,0,0,0,0,0,0,0,0,0,0,0,0,0,0,0,0,0,0,0,0,0,0,0,0,0,0,0,0,0,0,-5.6115,-5.6115,0,-5.6137,-5.6138,-5.6138,-5.6023,-5.602,-5.6017,-5.6014,-5.6037,-5.604,-5.6044,0,0,0,0,0,0,0,0,0,0,0,0,0,-5.5973,-5.5976,-5.6115,-5.6115,-5.6116,-5.6137,-5.6138,-5.6138,-5.6024,-5.602,-5.6016,-5.6012,-5.6036,-5.604,-5.6044,0,0,0,0,0,0,0,0,0,0,0,0,0,-5.6019,-5.5977,-5.6115,-5.6061,-5.6057,-5.6137,-5.6138,-5.6138,-5.6025,-5.602,-5.6015,-5.601,-5.6034,-5.604,-5.6045,-5.6178,0,0,-5.6062,-5.6064,0,0,0,0,0,0,0,0,-5.6016,-5.6024,-5.6069,-5.6065,-5.606,-5.6072,-5.6096,-5.6151,-5.6026,-5.6037,-5.6014,-5.6008,-5.6053,-5.6056,-5.6071,-5.6179,-5.618,-5.6062,-5.6066,-5.6068,-5.607,0,0,0,0,0,0,0,-5.6013,-5.6023,-5.6124,-5.607,-5.6065,-5.6036,-5.6037,-5.6106,-5.6072,-5.6036,-5.6027,-5.6032,-5.6049,-5.6066,-5.6071,-5.618,-5.6062,-5.6067,-5.6071,-5.6073,-5.6396,-5.6401,0,0,0,0,0,0,-5.6017,-5.6021,-5.6123,-5.6124,-5.6026,-5.6042,-5.6044,-5.6074,-5.6071,-5.6066,-5.6036,-5.6026,-5.6059,-5.6065,-5.6072,-5.6226,-5.6068,-5.6073,-5.6076,-5.6391,-5.6397,-5.6403,0,0,0,0,0,0,-5.6015,-5.6028,-5.6122,-5.607,-5.608,-5.605,-5.6085,-5.6077,-5.6093,-5.6071,-5.6065,-5.606,-5.6056,-5.6064,-5.6152,-5.6225,-5.6076,-5.6081,-5.6385,-5.6393,-5.64,-5.6537,0,0,0,0,0,0,-5.6011,-5.6027,-5.6078,-5.6072,-5.6083,-5.6203,-5.6089,-5.6081,-5.6103,-5.6091,-5.6092,-5.6087,-5.6052,-5.6144,-5.6158,-5.623,-5.6085,-5.6378,-5.6388,-5.6398,-5.6526,-5.6548,-5.6568,0,0,0,0,0,-5.6007,-5.6116,-5.6081,-5.6094,-5.6146,-5.6208,-5.6214,-5.6172,-5.611,-5.616,-5.6145,-5.6087,-5.6215,-5.6154,-5.6168,-5.6244,-5.6373,-5.6385,-5.6397,-5.6516,-5.6544,-5.6567,0,0,0,0,0,0,-5.6132,-5.6115,-5.6076,-5.6187,-5.62,-5.6188,-5.6251,-5.6203,-5.6233,-5.6221,-5.6167,-5.6168,-5.6265,-5.6263,-5.6196,-5.6371,-5.6283,-5.6299,-5.6369,-5.6395,-5.6416,-5.6414,-5.609,0,0,0,0,0,-5.6173,-5.6224,-5.6206,-5.6306,-5.6314,-5.6282,-5.6307,-5.6273,-5.6284,-5.6289,-5.628,-5.6293,-5.6336,-5.6365,-5.6404,-5.6524,-5.6522,-5.6583,-5.6604,-5.6621,-5.6635,-5.6697,-5.6724,-5.6442,-5.6442,-5.6442,0,0,-5.6257,-5.6254,-5.629,-5.6331,-5.6337,-5.639,-5.6287,-5.6349,-5.6388,-5.6298,-5.638,-5.6375,-5.6386,-5.649,-5.6536,-5.6492,-5.6712,-5.6637,-5.6651,-5.6655,-5.6712,-5.6739,-5.6763,-5.645,-5.6449,-5.6447,0,0,-5.6439,-5.6442,-5.6524,-5.6532,-5.6542,-5.6519,-5.6539,-5.6535,-5.6527,-5.6609,-5.6542,-5.6588,-5.6663,-5.6673,-5.6688,-5.6871,-5.6818,-5.6885,-5.6995,-5.7056,-5.7079,-5.7098,-5.7162,-5.7186,-5.6898,-5.6899,-5.6899,0,-5.6543,-5.6621,-5.6573,-5.6639,-5.6658,-5.6578,-5.6661,-5.6671,-5.6693,-5.6708,-5.6658,-5.6749,-5.6751,-5.6856,-5.69,-5.6916,-5.6936,-5.6885,-5.7079,-5.7098,-5.7116,-5.7176,-5.7201,-5.6907,-5.6906,-5.6905,-5.6904,0,-5.6748,-5.6803,-5.6869,-5.6891,-5.6918,-5.6992,-5.6955,-5.6987,-5.6951,-5.6933,-5.7017,-5.7015,-5.7051,-5.7074,-5.7039,-5.7174,-5.7146,-5.7089,-5.6999,-5.7151,-5.7207,-5.723,-5.6918,-5.6915,-5.6913,-5.6911,0,0,-5.7011,-5.7004,-5.7029,-5.7037,-5.7041,-5.7083,-5.7152,-5.7187,-5.7216,-5.7233,-5.729,-5.7354,-5.73,-5.7318,-5.7283,-5.7337,-5.748,-5.7272,-5.7272,-5.7311,-5.7628,-5.7671,-5.7698,-5.7445,-5.7449,-5.7453,-5.7626,0,-5.7188,-5.7307,-5.7264,-5.7385,-5.7435,-5.7359,-5.7419,-5.7428,-5.7413,-5.7453,-5.7436,-5.7482,-5.7409,-5.7418,-5.7468,-5.7453,-5.7543,-5.7439,-5.7497,-5.75,-5.7497,-5.7728,-5.7774,-5.7938,-5.7648,-5.7652,-5.7654,0,-5.7411,-5.7436,-5.7562,-5.7555,-5.7574,-5.763,-5.7657,-5.7696,-5.7704,-5.7689,-5.7707,-5.766,-5.7727,-5.7638,-5.7729,-5.766,-5.768,-5.7676,-5.7682,-5.7685,-5.7586,-5.7737,-5.7989,-5.8014,-5.7689,-5.7686,-5.7684,0,-5.7589,-5.7654,-5.7737,-5.7747,-5.7742,-5.7782,-5.7782,-5.7784,-5.7807,-5.7831,-5.7845,-5.7876,-5.7894,-5.7919,-5.7882,-5.782,-5.7978,-5.7886,-5.7967,-5.7968,-5.8004,-5.8003,-5.8263,-5.8019,-5.8018,-5.8018,-5.8017,0,-5.7791,-5.7871,-5.7817,-5.7869,-5.7955,-5.7905,-5.7992,-5.7983,-5.7986,-5.8034,-5.797,-5.8016,-5.7964,-5.8005,-5.7977,-5.8056,-5.8064,-5.8054,-5.8045,-5.806,-5.8061,-5.8073,-5.806,-5.8024,-5.8023,-5.8022,-5.802,0,-5.8005,-5.7972,-5.8058,-5.8045,-5.8043,-5.8108,-5.8096,-5.8143,-5.8123,-5.8184,-5.8195,-5.8164,-5.8209,-5.8174,-5.8218,-5.8199,-5.8303,-5.8279,-5.8301,-5.8294,-5.8377,-5.837,-5.8653,-5.8688,-5.8422,-5.8425,-5.8427,0,-5.8136,-5.8196,-5.8188,-5.8215,-5.8219,-5.8263,-5.8286,-5.8238,-5.8264,-5.8276,-5.8321,-5.836,-5.8389,-5.8464,-5.8445,-5.8478,-5.8454,-5.8551,-5.8459,-5.8471,-5.8455,-5.8451,-5.8457,-5.857,-5.8573,-5.8576,-5.8578,0,-5.8372,-5.8352,-5.8387,-5.8416,-5.8444,-5.8464,-5.848,-5.8506,-5.8457,-5.8489,-5.8533,-5.8556,-5.86,-5.864,-5.8666,-5.8665,-5.8614,-5.8607,-5.8627,-5.8642,-5.8652,-5.8647,-5.8352,-5.8601,-5.8598,-5.8597,-5.8595,-5.8594,-5.8548,-5.8597,-5.8599,-5.8639,-5.8645,-5.866,-5.8703,-5.8687,-5.8723,-5.8755,-5.8724,-5.8778,-5.8782,-5.8812,-5.8817,-5.8858,-5.8818,-5.8848,-5.8855,-5.8863,-5.8875,-5.8646,-5.8863,-5.8862,-5.8861,-5.8861,-5.886,0,-5.878,-5.8777,-5.8814,-5.8837,-5.8868,-5.8816,-5.8829,-5.8859,-5.8907,-5.8915,-5.8944,-5.8994,-5.9032,-5.9015,-5.9048,-5.9084,-5.9061,-5.9094,-5.9091,-5.9091,-5.8909,-5.8888,-5.9112,-5.9112,-5.9112,-5.9112,-5.9111,-5.9111,-5.8905,-5.8984,-5.8964,-5.9044,-5.904,-5.9092,-5.9104,-5.9117,-5.9123,-5.9182,-5.9212,-5.9201,-5.9199,-5.923,-5.9262,-5.9256,-5.9271,-5.9312,-5.9298,-5.9129,-5.9104,-5.908,-5.906,-5.9316,-5.9316,-5.9476,-5.9477,-5.9478]}]]